KD5BIG-13 Weather Reports


time (UTC)temp
F
wind
direction
speed
knots
gust
knots
rain 1hr
in
rain 24hr
in
rain mn
in
humidity
%
barometer
mb
20260502204544 72 326 5.2 10.4 0.00 0.10 0.10 38 1021.7
20260502204042 71 334 1.7 6.1 0.00 0.10 0.10 43 1021.7
20260502203539 71 334 9.6 11.3 0.00 0.10 0.10 39 1021.8
20260502203036 71 324 5.2 11.3 0.00 0.10 0.10 40 1021.8
20260502202532 71 7 5.2 10.4 0.00 0.10 0.10 40 1021.8
20260502202031 71 290 0.9 4.3 0.00 0.10 0.10 43 1021.9
20260502201526 71 307 3.5 12.2 0.00 0.10 0.10 38 1021.9
20260502201022 71 326 1.7 12.2 0.00 0.10 0.10 38 1021.9
20260502200518 71 281 4.3 10.4 0.00 0.10 0.10 42 1021.9
20260502200017 71 230 2.6 5.2 0.00 0.10 0.10 43 1022.0
20260502195514 71 306 5.2 7.8 0.00 0.10 0.10 41 1022.0
20260502195010 71 341 7.0 16.5 0.00 0.10 0.10 38 1022.1
20260502194507 71 346 7.8 7.8 0.00 0.10 0.10 41 1022.2
20260502194002 71 283 3.5 4.3 0.00 0.10 0.10 40 1022.2
20260502193500 71 352 5.2 11.3 0.00 0.10 0.10 38 1022.3
20260502192955 71 336 7.8 11.3 0.00 0.10 0.10 36 1022.3
20260502192452 71 285 3.5 13.0 0.00 0.10 0.10 36 1022.2
20260502191949 71 344 8.7 9.6 0.00 0.10 0.10 37 1022.2
20260502191447 71 330 7.8 11.3 0.00 0.10 0.10 36 1022.3
20260502190945 71 328 2.6 6.1 0.00 0.10 0.10 38 1022.3
20260502190442 71 327 7.0 10.4 0.00 0.10 0.10 40 1022.4
20260502185938 71 349 4.3 12.2 0.00 0.10 0.10 41 1022.4
20260502185433 71 349 4.3 7.0 0.00 0.10 0.10 42 1022.5
20260502184931 71 332 9.6 10.4 0.00 0.10 0.10 40 1022.5
20260502184426 70 341 11.3 13.9 0.00 0.10 0.10 37 1022.5
20260502183923 70 304 6.1 10.4 0.00 0.10 0.10 37 1022.6
20260502183419 70 272 1.7 10.4 0.00 0.10 0.10 40 1022.6
20260502182915 70 336 6.1 18.2 0.00 0.10 0.10 38 1022.6
20260502182410 70 163 1.7 8.7 0.00 0.10 0.10 41 1022.5
20260502181907 70 337 7.8 7.8 0.00 0.10 0.10 48 1022.9
20260502181405 69 357 4.3 7.8 0.00 0.10 0.10 43 1022.8
20260502180903 70 336 10.4 14.8 0.00 0.10 0.10 42 1022.8
20260502180400 70 1 3.5 7.8 0.00 0.10 0.10 43 1022.9
20260502170318 68 315 2.6 11.3 0.00 0.10 0.10 41 1023.5
20260502164306 68 310 6.1 12.2 0.00 0.10 0.10 45 1023.5
20260502163802 68 329 3.5 6.1 0.00 0.10 0.10 46 1023.4
20260502163258 68 279 3.5 7.8 0.00 0.10 0.10 49 1023.5
20260502162755 67 343 2.6 11.3 0.00 0.10 0.10 51 1023.3
20260502162253 66 327 2.6 5.2 0.00 0.10 0.10 53 1023.2
20260502161749 66 6 4.3 15.6 0.00 0.10 0.10 51 1023.3
20260502161245 66 285 1.7 10.4 0.00 0.10 0.10 51 1023.0
20260502160744 67 25 2.6 6.1 0.00 0.10 0.10 52 1023.3
20260502160243 66 312 5.2 10.4 0.00 0.10 0.10 54 1023.3
20260502152206 64 23 5.2 7.8 0.00 0.10 0.10 66 1022.9
20260502151703 64 321 2.6 10.4 0.00 0.10 0.10 67 1022.9
20260502151201 64 356 9.6 9.6 0.00 0.10 0.10 72 1022.8
20260502150658 64 290 4.3 7.0 0.00 0.10 0.10 77 1022.7
20260502150154 63 334 6.1 7.8 0.00 0.10 0.10 74 1022.6
20260502140118 60 3 0.9 3.5 0.00 0.10 0.10 89 1022.0
20260502130542 55 312 0.9 5.2 0.00 0.10 0.10 98 1021.4
20260502123526 54 355 1.7 5.2 0.00 0.10 0.10 99 1021.1
20260502123022 54 339 3.5 4.3 0.00 0.10 0.10 99 1020.7
20260502122519 54 317 0.9 1.7 0.00 0.10 0.10 99 1021.0
20260502122017 54 338 2.6 3.5 0.00 0.10 0.10 99 1020.9
20260502121514 54 295 1.7 3.5 0.00 0.10 0.10 99 1021.0
20260502121011 54 326 3.5 5.2 0.00 0.10 0.10 99 1020.8
20260502120507 54 328 0.0 3.5 0.00 0.10 0.10 99 1020.7
20260502115502 54 350 1.7 2.6 0.00 0.10 0.10 99 1020.5
20260502114958 54 338 2.6 3.5 0.00 0.10 0.10 99 1020.2
20260502114455 54 319 5.2 5.2 0.00 0.10 0.10 99 1020.3
20260502113952 53 341 3.5 6.1 0.00 0.10 0.10 99 1020.1
20260502113449 53 352 1.7 2.6 0.00 0.10 0.10 99 1019.8
20260502112948 53 357 1.7 4.3 0.00 0.10 0.10 99 1019.8
20260502112445 53 347 3.5 4.3 0.00 0.10 0.10 99 1019.9
20260502111942 53 348 1.7 2.6 0.00 0.10 0.10 99 1019.7
20260502111439 53 0 1.7 3.5 0.00 0.10 0.10 99 1019.7
20260502110937 53 333 1.7 2.6 0.00 0.10 0.10 99 1019.3
20260502110434 53 289 3.5 4.3 0.00 0.10 0.10 99 1019.5
20260502105931 53 326 0.9 1.7 0.00 0.10 0.10 99 1019.4
20260502105428 53 331 1.7 1.7 0.00 0.10 0.10 99 1019.3
20260502104927 53 358 0.9 1.7 0.00 0.10 0.10 99 1019.2
20260502104423 53 312 0.0 1.7 0.00 0.10 0.10 99 1019.3
20260502103921 53 346 0.0 2.6 0.00 0.10 0.10 99 1019.2
20260502103419 53 341 2.6 2.6 0.00 0.10 0.10 99 1019.3
20260502102915 53 335 0.0 0.9 0.00 0.10 0.10 99 1019.3
20260502102412 53 326 1.7 4.3 0.00 0.10 0.10 99 1019.4
20260502101909 53 327 0.0 2.6 0.00 0.10 0.10 99 1019.2
20260502101408 53 343 0.0 1.7 0.00 0.10 0.10 99 1019.2
20260502100905 53 320 0.9 1.7 0.00 0.10 0.10 99 1019.2
20260502100404 53 328 0.0 0.9 0.00 0.10 0.10 99 1019.2
20260502091338 53 252 0.0 2.6 0.00 0.10 0.10 99 1019.4
20260502090836 53 310 0.0 2.6 0.00 0.10 0.10 99 1019.5
20260502090332 53 262 0.9 3.5 0.00 0.10 0.10 99 1019.2
20260502071227 52 9 0.0 1.7 0.00 0.09 0.09 98 1019.0
20260502070726 52 319 0.0 2.6 0.02 0.09 0.09 98 1019.1
20260502070223 52 343 1.7 3.5 0.00 0.09 0.09 98 1018.9
20260502065721 52 342 0.9 1.7 0.00 0.09 0.09 98 1019.0
20260502065218 52 282 1.7 3.5 0.00 0.09 0.09 97 1019.2
20260502064717 52 278 0.9 1.7 0.00 0.09 0.09 97 1018.8
20260502064214 52 266 1.7 1.7 0.00 0.09 0.09 97 1018.9
20260502063712 52 50 0.0 1.7 0.00 0.09 0.09 97 1019.1
20260502063209 52 321 1.7 3.5 0.00 0.09 0.09 97 1019.2
20260502062706 52 302 2.6 5.2 0.00 0.09 0.09 97 1019.1
20260502062204 52 309 0.9 6.1 0.02 0.09 0.09 97 1019.3
20260502061702 52 274 0.9 2.6 0.02 0.08 0.08 97 1019.5
20260502061159 52 48 0.0 1.7 0.02 0.08 0.08 97 1019.1
20260502060654 52 23 0.0 2.6 0.00 0.08 0.08 97 1018.8
20260502060151 52 343 3.5 3.5 0.00 0.08 0.08 97 1019.3
20260502055649 52 271 1.7 4.3 0.02 0.08 0.08 97 1019.5
20260502055147 52 336 1.7 3.5 0.05 0.08 0.08 97 1020.0
20260502054646 52 344 3.5 6.1 0.05 0.07 0.07 97 1020.2
20260502054142 52 228 1.7 4.3 0.05 0.07 0.07 97 1020.3
20260502053640 52 345 3.5 4.3 0.07 0.07 0.07 97 1020.0
20260502053137 52 288 4.3 7.8 0.12 0.06 0.06 97 1019.2
20260502052635 52 304 1.7 4.3 0.12 0.05 0.05 97 1019.9
20260502052133 52 335 3.5 7.0 0.12 0.04 0.04 97 1020.1
20260502051631 52 344 3.5 7.0 0.12 0.03 0.03 97 1020.0
20260502051129 52 266 1.7 6.1 0.09 0.02 0.02 97 1019.8
20260502050625 52 339 3.5 6.1 0.07 0.01 0.01 97 1019.5
20260502050121 52 335 4.3 6.1 0.05 0.00 0.00 97 1019.8
20260502045618 52 327 3.5 7.0 0.02 2.01 2.01 97 1019.7
20260502045115 52 334 3.5 6.1 0.02 2.01 2.01 97 1019.5
20260502044612 52 228 1.7 2.6 0.02 2.01 2.01 97 1019.8
20260502044108 52 314 1.7 3.5 0.05 2.01 2.01 97 1019.9
20260502043606 52 4 1.7 5.2 0.05 2.00 2.00 97 1019.9
20260502043102 52 32 0.0 3.5 0.05 2.00 2.00 97 1019.8
20260502042556 52 344 2.6 4.3 0.05 2.00 2.00 97 1019.8
20260502042054 52 333 3.5 4.3 0.02 1.99 1.99 98 1020.0
20260502041552 52 322 6.1 8.7 0.02 1.99 1.99 98 1019.7
20260502041049 52 315 1.7 5.2 0.02 1.99 1.99 98 1019.3
20260502040545 52 332 1.7 3.5 0.02 1.98 1.98 98 1019.3
20260502040043 52 282 1.7 4.3 0.05 1.98 1.98 98 1019.4
20260502035538 52 337 3.5 5.2 0.05 1.98 1.98 98 1019.4
20260502035036 52 335 3.5 4.3 0.07 1.97 1.97 98 1019.5
20260502034534 52 239 0.0 2.6 0.07 1.97 1.97 98 1019.3
20260502034032 52 249 0.9 1.7 0.05 1.96 1.96 98 1019.7
20260502033530 52 328 2.6 4.3 0.07 1.96 1.96 98 1019.8
20260502033027 52 324 2.6 2.6 0.09 1.95 1.95 98 1020.4
20260502032523 52 326 2.6 3.5 0.07 1.95 1.95 98 1020.4
20260502032020 52 333 1.7 2.6 0.07 1.94 1.94 98 1020.2
20260502031518 52 335 2.6 3.5 0.02 1.93 1.93 98 1020.2
20260502031015 52 13 0.0 4.3 0.02 1.93 1.93 98 1019.8
20260502030514 52 260 1.7 1.7 0.02 1.93 1.93 98 1019.7
20260502030012 52 261 0.9 1.7 0.00 1.92 1.92 98 1019.1
20260502025509 52 244 1.7 1.7 0.02 1.92 1.92 98 1018.9
20260502025007 52 342 1.7 4.3 0.02 1.92 1.92 98 1018.9
20260502024504 52 285 1.7 3.5 0.00 1.92 1.92 98 1018.7
20260502024003 52 285 1.7 2.6 0.00 1.92 1.92 98 1018.6
20260502023459 52 253 0.0 2.6 0.00 1.92 1.92 97 1018.6
20260502022957 52 293 2.6 4.3 0.00 1.92 1.92 97 1018.4
20260502022453 52 322 3.5 5.2 0.00 1.92 1.92 97 1018.3
20260502021950 52 284 3.5 5.2 0.02 1.92 1.92 98 1018.1
20260502021448 51 14 2.6 7.8 0.02 1.92 1.92 97 1018.0
20260502020944 51 343 4.3 5.2 0.00 1.91 1.91 97 1018.0
20260502020442 51 13 4.3 7.0 0.00 1.91 1.91 97 1017.9
20260502015939 51 329 7.0 8.7 0.00 1.91 1.91 97 1017.8
20260502015437 51 304 3.5 7.0 0.00 1.91 1.91 97 1017.7
20260502014933 51 301 1.7 8.7 0.00 1.91 1.91 97 1017.8
20260502014430 52 338 1.7 5.2 0.00 1.91 1.91 97 1017.8
20260502013926 52 304 5.2 7.8 0.00 1.91 1.91 97 1018.1
20260502013422 52 352 2.6 9.6 0.00 1.91 1.91 97 1018.2
20260502012919 52 320 3.5 7.8 0.02 1.91 1.91 97 1018.2
20260502012417 52 332 5.2 9.6 0.05 1.91 1.91 97 1018.2
20260502011914 52 337 4.3 6.1 0.05 1.91 1.91 97 1018.0
20260502011410 52 303 4.3 5.2 0.05 1.91 1.91 98 1017.8
20260502010907 52 341 4.3 5.2 0.07 1.90 1.90 98 1018.0
20260502010403 52 351 3.5 8.7 0.07 1.90 1.90 98 1017.7
20260502005900 52 317 2.6 6.1 0.05 1.89 1.89 98 1018.0
20260502005358 52 218 1.7 7.8 0.02 1.89 1.89 98 1017.9
20260502004855 52 289 0.0 5.2 0.02 1.88 1.88 98 1017.9
20260502004351 52 9 0.0 7.0 0.02 1.88 1.88 98 1017.8
20260502003849 52 305 5.2 6.1 0.02 1.88 1.88 98 1017.8
20260502003346 52 341 5.2 5.2 0.05 1.88 1.88 98 1017.5
20260502002842 52 308 1.7 8.7 0.07 1.87 1.87 98 1017.6
20260502002339 52 315 3.5 4.3 0.09 1.87 1.87 98 1017.9
20260502001837 52 332 2.6 5.2 0.07 1.86 1.86 98 1018.4
20260502001334 52 330 2.6 3.5 0.07 1.85 1.85 98 1018.7
20260502000832 52 256 0.0 1.7 0.05 1.85 1.85 98 1018.7
20260502000332 52 348 0.0 1.7 0.05 1.84 1.84 98 1018.7
20260501235826 52 331 0.0 3.5 0.07 1.84 1.84 98 1018.1
20260501235321 52 8 4.3 9.6 0.12 1.83 1.83 98 1017.7
20260501234817 52 335 2.6 6.1 0.14 1.83 1.83 98 1017.7
20260501234314 52 331 3.5 5.2 0.19 1.81 1.81 98 1017.6
20260501233813 53 325 4.3 4.3 0.28 1.80 1.80 98 1018.0
20260501233310 53 344 3.5 5.2 0.24 1.78 1.78 98 1018.2
20260501232805 52 321 2.6 3.5 0.17 1.75 1.75 98 1018.5
20260501232305 52 339 2.6 3.5 0.21 1.74 1.74 98 1018.3
20260501231800 52 338 2.6 5.2 0.31 1.73 1.73 98 1018.3
20260501231258 52 306 0.0 2.6 0.33 1.70 1.70 98 1018.0
20260501230756 52 284 1.7 3.5 0.38 1.67 1.67 98 1017.7
20260501230254 52 346 2.6 3.5 0.35 1.64 1.64 98 1017.9
20260501225751 52 315 3.5 5.2 0.31 1.60 1.60 98 1017.8
20260501225249 52 253 0.0 1.7 0.24 1.57 1.57 98 1017.3
20260501224745 52 227 0.9 3.5 0.17 1.55 1.55 98 1016.7
20260501224243 52 354 1.7 8.7 0.14 1.53 1.53 98 1016.1
20260501223738 52 256 1.7 3.5 0.17 1.52 1.52 97 1016.0
20260501223235 52 286 3.5 4.3 0.19 1.51 1.51 97 1015.6
20260501222731 52 264 3.5 5.2 0.21 1.49 1.49 97 1015.1
20260501222229 52 232 1.7 4.3 0.19 1.47 1.47 97 1015.1
20260501221725 52 329 4.3 7.8 0.19 1.46 1.46 97 1014.8
20260501221223 52 331 5.2 7.0 0.26 1.44 1.44 97 1015.1
20260501220720 52 182 4.3 4.3 0.35 1.43 1.43 97 1015.3
20260501220217 52 291 7.0 7.0 0.31 1.39 1.39 97 1015.5
20260501215714 52 286 3.5 7.8 0.31 1.36 1.36 97 1015.4
20260501215209 52 133 3.5 5.2 0.38 1.33 1.33 97 1015.6
20260501214704 52 311 1.7 7.8 0.28 1.29 1.29 97 1015.5
20260501214201 52 315 2.6 5.2 0.28 1.27 1.27 97 1015.8
20260501213657 52 337 3.5 4.3 0.31 1.25 1.25 97 1015.5
20260501213153 52 334 5.2 9.6 0.31 1.22 1.22 96 1015.6
20260501212650 52 11 1.7 5.2 0.35 1.19 1.19 96 1015.8
20260501212147 52 166 2.6 11.3 0.33 1.16 1.16 96 1015.5
20260501211643 52 334 7.8 7.8 0.31 1.13 1.13 96 1015.7
20260501211141 53 3 4.3 8.7 0.33 1.10 1.10 96 1016.0
20260501210637 53 273 3.5 4.3 0.38 1.07 1.07 96 1016.1
20260501210134 53 245 1.7 6.1 0.40 1.04 1.04 96 1016.3
20260501205631 53 281 4.3 11.3 0.31 1.00 1.00 96 1016.3
20260501205128 54 332 4.3 7.8 0.31 0.97 0.97 96 1016.7
20260501204625 54 345 2.6 8.7 0.35 0.95 0.95 96 1016.7